Tracking 28908 objects as of 20-May-2024
HD Live streaming from Space Station
objects crossing your sky now

STARLINK-6050

Track STARLINK-6050 now!
10-day predictions
STARLINK-6050 is classified as:


NORAD ID: 56458
Int'l Code: 2023-064L
Perigee: 577.3 km
Apogee: 581.3 km
Inclination: 70.0 °
Period: 96.1 minutes
Semi major axis: 6950 km
RCS: Unknown
Launch date: May 10, 2023
Source: United States (US)
Launch site: AIR FORCE WESTERN TEST RANGE (AFWTR)
Your satellite tracking list
Your tracking list is empty




NASA's NSSDC Master Catalog

Two Line Element Set (TLE):
1 56458U 23064L   24140.83097442  .00001401  00000-0  12527-3 0  9997
2 56458  70.0010   5.7449 0002860 276.3413  83.7420 14.98303305 56910
Source of the keplerian elements: AFSPC